Simultaneous Nadir Overpasses (SNOs) Predictions

Prediction of SNOs over PacNW region [( 10.00, 139.50) to ( 22.70, 165.60)] between AQUA and NPP Satellites:

Table of predicted SNOs over PacNW region for the next 30.0 days since TLE Epoch: 11/17/2017
Index Date (AQUA) Time (AQUA) AQUA Lat,Lon Date (NPP) Time (NPP) NPP Lat,Lon Distance(km) Time Diff (sec)
1 11/19/2017 03:31:38 22.65, 147.51 11/19/2017 03:28:09 23.79, 145.40 250.69 209
2 11/24/2017 15:59:16 22.59, 147.47 11/24/2017 16:02:16 23.27, 144.47 316.45 180
3 12/02/2017 15:09:50 22.61, 159.84 12/02/2017 15:11:29 23.22, 157.15 284.47 99
4 12/05/2017 03:31:40 22.67, 147.52 12/05/2017 03:28:11 24.24, 145.28 287.42 209
5 12/10/2017 15:59:17 22.59, 147.49 12/10/2017 16:02:10 23.26, 144.47 318.14 174




NCC Satellite Simultaneous Nadir Overpasses (SNOs) Prediction Service
